| time (UTC) | temp C | wind direction | speed KPH | gust KPH | rain 1hr cm | rain 24hr cm | rain mn cm | humidity % | barometer mb |
| 20260508223046 | 20 | 158 | 0.0 | 3.2 | 0.00 | 0.13 | 0.00 | 57 | 1013.6 |
| 20260508222529 | 20 | 0 | 0.0 | 3.2 | 0.00 | 0.13 | 0.00 | 56 | 1013.5 |
| 20260508222027 | 20 | 0 | 0.0 | 6.4 | 0.00 | 0.13 | 0.00 | 55 | 1013.4 |
| 20260508221548 | 20 | 0 | 0.0 | 6.4 | 0.00 | 0.13 | 0.00 | 56 | 1013.3 |
| 20260508221028 | 20 | 0 | 0.0 | 8.0 | 0.00 | 0.13 | 0.00 | 54 | 1013.6 |
| 20260508220533 | 20 | 159 | 1.6 | 8.0 | 0.00 | 0.13 | 0.00 | 55 | 1013.8 |
| 20260508220045 | 20 | 158 | 1.6 | 6.4 | 0.00 | 0.13 | 0.00 | 55 | 1013.8 |
| 20260508215534 | 20 | 0 | 0.0 | 4.8 | 0.00 | 0.23 | 0.00 | 54 | 1013.6 |
| 20260508215032 | 20 | 0 | 0.0 | 4.8 | 0.00 | 0.23 | 0.00 | 54 | 1013.6 |
| 20260508214618 | 20 | 0 | 0.0 | 4.8 | 0.00 | 0.23 | 0.00 | 55 | 1013.6 |
| 20260508214034 | 20 | 0 | 1.6 | 4.8 | 0.00 | 0.23 | 0.00 | 55 | 1013.5 |
| 20260508213530 | 20 | 125 | 0.0 | 4.8 | 0.00 | 0.23 | 0.00 | 55 | 1013.6 |
| 20260508213053 | 21 | 0 | 0.0 | 4.8 | 0.00 | 0.23 | 0.00 | 54 | 1013.7 |
| 20260508212533 | 21 | 0 | 0.0 | 4.8 | 0.00 | 0.23 | 0.00 | 53 | 1013.5 |
| 20260508212036 | 21 | 121 | 0.0 | 4.8 | 0.00 | 0.23 | 0.00 | 55 | 1013.5 |
| 20260508211543 | 21 | 0 | 1.6 | 4.8 | 0.00 | 0.23 | 0.00 | 52 | 1013.5 |
| 20260508211032 | 20 | 121 | 0.0 | 6.4 | 0.00 | 0.23 | 0.00 | 52 | 1013.6 |
| 20260508210530 | 20 | 121 | 1.6 | 6.4 | 0.00 | 0.23 | 0.00 | 51 | 1013.7 |
| 20260508210054 | 21 | 0 | 0.0 | 6.4 | 0.00 | 0.23 | 0.00 | 51 | 1013.6 |
| 20260508205529 | 20 | 0 | 0.0 | 6.4 | 0.00 | 0.38 | 0.00 | 50 | 1013.7 |
| 20260508205034 | 21 | 107 | 1.6 | 4.8 | 0.00 | 0.38 | 0.00 | 49 | 1013.6 |
| 20260508204543 | 21 | 117 | 0.0 | 4.8 | 0.00 | 0.38 | 0.00 | 50 | 1013.6 |
| 20260508204030 | 21 | 119 | 0.0 | 6.4 | 0.00 | 0.38 | 0.00 | 50 | 1013.8 |
| 20260508203532 | 21 | 118 | 1.6 | 6.4 | 0.00 | 0.38 | 0.00 | 51 | 1014.0 |
| 20260508203105 | 21 | 0 | 1.6 | 6.4 | 0.00 | 0.38 | 0.00 | 48 | 1013.8 |
| 20260508202532 | 21 | 0 | 1.6 | 9.7 | 0.00 | 0.38 | 0.00 | 48 | 1013.9 |
| 20260508202030 | 21 | 0 | 3.2 | 9.7 | 0.00 | 0.38 | 0.00 | 49 | 1014.1 |
| 20260508201546 | 21 | 128 | 1.6 | 6.4 | 0.00 | 0.38 | 0.00 | 49 | 1014.0 |
| 20260508201033 | 21 | 132 | 1.6 | 4.8 | 0.00 | 0.38 | 0.00 | 49 | 1013.8 |
| 20260508200533 | 21 | 0 | 1.6 | 4.8 | 0.00 | 0.38 | 0.00 | 48 | 1014.0 |
| 20260508200043 | 21 | 0 | 1.6 | 4.8 | 0.00 | 0.38 | 0.00 | 48 | 1013.7 |
| 20260508195535 | 21 | 131 | 0.0 | 3.2 | 0.00 | 0.58 | 0.00 | 48 | 1013.9 |
| 20260508195029 | 21 | 0 | 0.0 | 4.8 | 0.00 | 0.58 | 0.00 | 46 | 1013.9 |
| 20260508194540 | 21 | 134 | 0.0 | 9.7 | 0.00 | 0.58 | 0.00 | 47 | 1014.0 |
| 20260508194033 | 21 | 117 | 1.6 | 9.7 | 0.00 | 0.58 | 0.00 | 47 | 1014.2 |
| 20260508193535 | 21 | 77 | 4.8 | 9.7 | 0.00 | 0.58 | 0.00 | 47 | 1014.3 |
| 20260508193051 | 21 | 0 | 0.0 | 6.4 | 0.00 | 0.58 | 0.00 | 47 | 1014.7 |
| 20260508192529 | 21 | 78 | 1.6 | 9.7 | 0.00 | 0.58 | 0.00 | 47 | 1014.6 |
| 20260508192030 | 21 | 146 | 3.2 | 11.3 | 0.00 | 0.58 | 0.00 | 49 | 1014.5 |
| 20260508191548 | 21 | 104 | 4.8 | 11.3 | 0.00 | 0.58 | 0.00 | 48 | 1014.6 |
| 20260508191029 | 21 | 0 | 1.6 | 11.3 | 0.00 | 0.58 | 0.00 | 48 | 1014.5 |
| 20260508190529 | 21 | 90 | 1.6 | 11.3 | 0.00 | 0.58 | 0.00 | 48 | 1014.8 |
| 20260508190044 | 21 | 75 | 4.8 | 11.3 | 0.00 | 0.58 | 0.00 | 48 | 1014.8 |
| 20260508185533 | 21 | 94 | 3.2 | 11.3 | 0.00 | 0.84 | 0.00 | 49 | 1015.0 |
| 20260508185036 | 21 | 128 | 4.8 | 11.3 | 0.00 | 0.84 | 0.00 | 49 | 1015.1 |
| 20260508184542 | 21 | 113 | 3.2 | 12.9 | 0.00 | 0.84 | 0.00 | 48 | 1015.1 |
| 20260508184029 | 21 | 132 | 4.8 | 12.9 | 0.00 | 0.84 | 0.00 | 49 | 1015.1 |
| 20260508183529 | 21 | 182 | 3.2 | 9.7 | 0.00 | 0.84 | 0.00 | 49 | 1015.1 |
| 20260508183041 | 21 | 179 | 3.2 | 8.0 | 0.00 | 0.84 | 0.00 | 50 | 1015.4 |
| 20260508182529 | 21 | 0 | 3.2 | 8.0 | 0.00 | 0.84 | 0.00 | 49 | 1015.5 |
| 20260508182028 | 21 | 208 | 3.2 | 8.0 | 0.00 | 0.84 | 0.00 | 51 | 1015.3 |
| 20260508181543 | 21 | 188 | 0.0 | 9.7 | 0.00 | 0.84 | 0.00 | 51 | 1015.5 |
| 20260508181028 | 21 | 0 | 3.2 | 16.1 | 0.00 | 0.84 | 0.00 | 49 | 1015.5 |
| 20260508180528 | 21 | 143 | 4.8 | 16.1 | 0.00 | 0.84 | 0.00 | 51 | 1015.3 |
| 20260508180042 | 21 | 177 | 6.4 | 14.5 | 0.00 | 0.84 | 0.00 | 50 | 1015.4 |
| 20260508175528 | 22 | 157 | 3.2 | 9.7 | 0.00 | 1.12 | 0.00 | 50 | 1015.8 |
| 20260508175030 | 22 | 299 | 3.2 | 12.9 | 0.00 | 1.12 | 0.00 | 49 | 1015.6 |
| 20260508174542 | 22 | 191 | 4.8 | 12.9 | 0.00 | 1.12 | 0.00 | 51 | 1015.7 |
| 20260508174029 | 22 | 183 | 6.4 | 12.9 | 0.00 | 1.12 | 0.00 | 52 | 1015.7 |
| 20260508173529 | 22 | 195 | 4.8 | 11.3 | 0.00 | 1.12 | 0.00 | 54 | 1015.7 |
| 20260508173041 | 21 | 225 | 3.2 | 11.3 | 0.00 | 1.12 | 0.00 | 53 | 1015.8 |
| 20260508172529 | 21 | 267 | 3.2 | 16.1 | 0.00 | 1.12 | 0.00 | 54 | 1015.8 |
| 20260508172030 | 21 | 192 | 4.8 | 17.7 | 0.00 | 1.12 | 0.00 | 52 | 1016.0 |
| 20260508171542 | 21 | 186 | 6.4 | 17.7 | 0.00 | 1.12 | 0.00 | 54 | 1016.1 |
| 20260508171031 | 20 | 0 | 4.8 | 12.9 | 0.00 | 1.12 | 0.00 | 54 | 1016.0 |
| 20260508170528 | 20 | 52 | 4.8 | 17.7 | 0.00 | 1.12 | 0.00 | 54 | 1016.2 |
| 20260508170042 | 20 | 180 | 3.2 | 17.7 | 0.00 | 1.12 | 0.00 | 54 | 1016.1 |
| 20260508165530 | 21 | 161 | 8.0 | 16.1 | 0.00 | 1.42 | 0.00 | 57 | 1016.4 |
| 20260508165030 | 21 | 100 | 1.6 | 12.9 | 0.00 | 1.42 | 0.00 | 58 | 1016.4 |
| 20260508164543 | 20 | 136 | 4.8 | 12.9 | 0.00 | 1.42 | 0.00 | 57 | 1016.6 |
| 20260508164030 | 20 | 215 | 4.8 | 11.3 | 0.00 | 1.42 | 0.00 | 58 | 1016.7 |
| 20260508163530 | 20 | 228 | 4.8 | 14.5 | 0.00 | 1.42 | 0.00 | 58 | 1016.7 |
| 20260508163045 | 20 | 0 | 4.8 | 14.5 | 0.00 | 1.42 | 0.00 | 56 | 1016.8 |
| 20260508162530 | 20 | 120 | 6.4 | 14.5 | 0.00 | 1.42 | 0.00 | 57 | 1016.6 |
| 20260508162032 | 20 | 52 | 4.8 | 14.5 | 0.00 | 1.42 | 0.00 | 59 | 1017.0 |
| 20260508161543 | 20 | 0 | 4.8 | 14.5 | 0.00 | 1.42 | 0.00 | 61 | 1017.0 |
| 20260508161030 | 20 | 0 | 8.0 | 14.5 | 0.00 | 1.42 | 0.00 | 60 | 1017.1 |
| 20260508160531 | 20 | 84 | 3.2 | 14.5 | 0.00 | 1.42 | 0.00 | 62 | 1017.5 |
| 20260508160042 | 20 | 124 | 4.8 | 14.5 | 0.00 | 1.42 | 0.00 | 63 | 1017.4 |
| 20260508155529 | 20 | 94 | 4.8 | 14.5 | 0.00 | 1.83 | 0.00 | 63 | 1017.4 |
| 20260508155030 | 20 | 216 | 6.4 | 14.5 | 0.00 | 1.83 | 0.00 | 64 | 1017.4 |
| 20260508154540 | 19 | 138 | 8.0 | 14.5 | 0.00 | 1.83 | 0.00 | 64 | 1017.5 |
| 20260508154030 | 18 | 61 | 1.6 | 14.5 | 0.00 | 1.83 | 0.00 | 65 | 1017.6 |
| 20260508153530 | 18 | 141 | 6.4 | 14.5 | 0.00 | 1.83 | 0.00 | 65 | 1017.7 |
| 20260508153042 | 18 | 141 | 3.2 | 12.9 | 0.00 | 1.83 | 0.00 | 68 | 1017.6 |
| 20260508152530 | 18 | 149 | 3.2 | 12.9 | 0.00 | 1.83 | 0.00 | 68 | 1017.7 |
| 20260508152030 | 18 | 131 | 6.4 | 12.9 | 0.00 | 1.83 | 0.00 | 69 | 1017.8 |
| 20260508151543 | 18 | 321 | 1.6 | 9.7 | 0.00 | 1.83 | 0.00 | 72 | 1017.8 |
| 20260508151030 | 17 | 244 | 1.6 | 9.7 | 0.00 | 1.83 | 0.00 | 72 | 1017.8 |
| 20260508150529 | 17 | 57 | 3.2 | 8.0 | 0.00 | 1.83 | 0.00 | 72 | 1017.8 |
| 20260508150042 | 17 | 76 | 1.6 | 9.7 | 0.00 | 1.83 | 0.00 | 74 | 1017.8 |
| 20260508145530 | 16 | 72 | 3.2 | 9.7 | 0.00 | 2.26 | 0.00 | 73 | 1017.8 |
| 20260508145028 | 16 | 89 | 1.6 | 6.4 | 0.00 | 2.26 | 0.00 | 74 | 1017.8 |
| 20260508144540 | 16 | 0 | 1.6 | 8.0 | 0.00 | 2.26 | 0.00 | 75 | 1017.9 |
| 20260508144030 | 16 | 62 | 0.0 | 8.0 | 0.00 | 2.26 | 0.00 | 76 | 1018.0 |
| 20260508143531 | 16 | 62 | 3.2 | 8.0 | 0.00 | 2.26 | 0.00 | 75 | 1017.9 |
| 20260508143040 | 16 | 108 | 3.2 | 6.4 | 0.00 | 2.26 | 0.00 | 77 | 1017.9 |
| 20260508142532 | 15 | 92 | 0.0 | 6.4 | 0.00 | 2.26 | 0.00 | 78 | 1017.7 |
| 20260508142030 | 15 | 0 | 1.6 | 6.4 | 0.00 | 2.26 | 0.00 | 79 | 1017.7 |
| 20260508141539 | 15 | 82 | 1.6 | 4.8 | 0.00 | 2.26 | 0.00 | 79 | 1017.7 |
| 20260508141031 | 15 | 0 | 0.0 | 6.4 | 0.00 | 2.26 | 0.00 | 80 | 1017.7 |
| 20260508140531 | 14 | 0 | 0.0 | 6.4 | 0.00 | 2.26 | 0.00 | 80 | 1017.6 |
| 20260508140042 | 14 | 28 | 0.0 | 8.0 | 0.00 | 2.26 | 0.00 | 81 | 1017.6 |
| 20260508135532 | 14 | 41 | 1.6 | 8.0 | 0.00 | 2.64 | 0.00 | 80 | 1017.7 |
| 20260508135030 | 14 | 44 | 3.2 | 8.0 | 0.00 | 2.64 | 0.00 | 81 | 1017.8 |
| 20260508134545 | 14 | 51 | 3.2 | 6.4 | 0.00 | 2.64 | 0.00 | 82 | 1017.6 |
| 20260508134029 | 13 | 26 | 0.0 | 4.8 | 0.00 | 2.64 | 0.00 | 84 | 1017.7 |
| 20260508133532 | 13 | 5 | 0.0 | 4.8 | 0.00 | 2.64 | 0.00 | 84 | 1017.7 |
| 20260508133043 | 13 | 5 | 1.6 | 4.8 | 0.00 | 2.64 | 0.00 | 84 | 1017.9 |
| 20260508132529 | 13 | 360 | 0.0 | 4.8 | 0.00 | 2.64 | 0.00 | 85 | 1017.9 |
| 20260508132030 | 13 | 0 | 0.0 | 1.6 | 0.00 | 2.64 | 0.00 | 86 | 1017.9 |
| 20260508131542 | 12 | 0 | 0.0 | 4.8 | 0.00 | 2.64 | 0.00 | 87 | 1017.8 |
| 20260508131030 | 12 | 0 | 0.0 | 4.8 | 0.00 | 2.64 | 0.00 | 87 | 1017.9 |
| 20260508130531 | 12 | 325 | 1.6 | 4.8 | 0.00 | 2.64 | 0.00 | 88 | 1017.9 |
| 20260508130036 | 12 | 325 | 1.6 | 3.2 | 0.00 | 2.64 | 0.00 | 88 | 1018.0 |
| 20260508125528 | 12 | 0 | 0.0 | 3.2 | 0.00 | 2.97 | 0.00 | 90 | 1018.0 |
| 20260508125030 | 11 | 0 | 0.0 | 0.0 | 0.00 | 2.97 | 0.00 | 91 | 1017.9 |
| 20260508124540 | 11 | 0 | 0.0 | 0.0 | 0.00 | 2.97 | 0.00 | 91 | 1017.8 |
| 20260508124029 | 11 | 0 | 0.0 | 3.2 | 0.00 | 2.97 | 0.00 | 92 | 1017.7 |
| 20260508123529 | 11 | 0 | 0.0 | 3.2 | 0.00 | 2.97 | 0.00 | 92 | 1017.8 |
| 20260508123040 | 11 | 328 | 0.0 | 3.2 | 0.00 | 2.97 | 0.00 | 92 | 1017.8 |
| 20260508122529 | 11 | 0 | 0.0 | 4.8 | 0.00 | 2.97 | 0.00 | 91 | 1017.9 |
| 20260508122030 | 10 | 329 | 1.6 | 4.8 | 0.00 | 2.97 | 0.00 | 92 | 1017.9 |
| 20260508121543 | 10 | 329 | 1.6 | 3.2 | 0.00 | 2.97 | 0.00 | 93 | 1017.8 |
| 20260508121028 | 10 | 330 | 0.0 | 3.2 | 0.00 | 2.97 | 0.00 | 93 | 1017.7 |
| 20260508120528 | 10 | 0 | 0.0 | 3.2 | 0.00 | 2.97 | 0.00 | 93 | 1017.6 |
| 20260508120044 | 10 | 0 | 0.0 | 0.0 | 0.00 | 2.97 | 0.00 | 94 | 1017.5 |
| 20260508115528 | 10 | 0 | 0.0 | 1.6 | 0.00 | 3.33 | 0.00 | 93 | 1017.4 |
| 20260508115027 | 10 | 0 | 0.0 | 1.6 | 0.00 | 3.33 | 0.00 | 93 | 1017.1 |
| 20260508114550 | 10 | 0 | 0.0 | 0.0 | 0.00 | 3.33 | 0.00 | 93 | 1017.1 |
| 20260508114030 | 9 | 0 | 0.0 | 0.0 | 0.00 | 3.33 | 0.00 | 93 | 1016.9 |
| 20260508113531 | 9 | 0 | 0.0 | 0.0 | 0.00 | 3.33 | 0.00 | 93 | 1016.7 |
| 20260508113043 | 9 | 0 | 0.0 | 0.0 | 0.00 | 3.33 | 0.00 | 93 | 1016.6 |
| 20260508112529 | 9 | 0 | 0.0 | 3.2 | 0.00 | 3.33 | 0.00 | 93 | 1016.4 |
| 20260508112031 | 9 | 0 | 0.0 | 3.2 | 0.00 | 3.33 | 0.00 | 92 | 1016.3 |
| 20260508111556 | 9 | 0 | 0.0 | 3.2 | 0.00 | 3.33 | 0.00 | 92 | 1016.2 |
| 20260508111030 | 9 | 332 | 0.0 | 3.2 | 0.00 | 3.33 | 0.00 | 92 | 1016.3 |
| 20260508110530 | 9 | 0 | 0.0 | 0.0 | 0.00 | 3.33 | 0.00 | 92 | 1016.2 |
| 20260508110040 | 9 | 0 | 0.0 | 0.0 | 0.00 | 3.33 | 0.00 | 92 | 1016.2 |
| 20260508105528 | 9 | 0 | 0.0 | 0.0 | 0.00 | 3.61 | 0.00 | 92 | 1016.2 |
| 20260508105030 | 10 | 0 | 0.0 | 0.0 | 0.00 | 3.61 | 0.00 | 92 | 1016.0 |
| 20260508104541 | 10 | 0 | 0.0 | 0.0 | 0.00 | 3.61 | 0.00 | 92 | 1015.9 |
| 20260508104028 | 10 | 0 | 0.0 | 0.0 | 0.00 | 3.61 | 0.00 | 92 | 1015.8 |
| 20260508103528 | 10 | 0 | 0.0 | 0.0 | 0.00 | 3.61 | 0.00 | 92 | 1015.7 |
| 20260508103041 | 10 | 0 | 0.0 | 0.0 | 0.00 | 3.61 | 0.00 | 92 | 1015.6 |
| 20260508102530 | 10 | 0 | 0.0 | 0.0 | 0.00 | 3.61 | 0.00 | 92 | 1015.5 |
| 20260508102028 | 10 | 0 | 0.0 | 0.0 | 0.00 | 3.61 | 0.00 | 93 | 1015.5 |
| 20260508101537 | 10 | 0 | 0.0 | 0.0 | 0.00 | 3.61 | 0.00 | 92 | 1015.3 |
| 20260508101029 | 9 | 0 | 0.0 | 0.0 | 0.00 | 3.61 | 0.00 | 92 | 1015.3 |
| 20260508100528 | 10 | 0 | 0.0 | 0.0 | 0.00 | 3.61 | 0.00 | 91 | 1015.2 |
| 20260508100038 | 10 | 0 | 0.0 | 0.0 | 0.00 | 3.61 | 0.00 | 91 | 1015.2 |
| 20260508095530 | 10 | 0 | 0.0 | 0.0 | 0.00 | 3.91 | 0.00 | 91 | 1015.1 |
| 20260508095033 | 10 | 0 | 0.0 | 0.0 | 0.00 | 3.91 | 0.00 | 91 | 1015.1 |
| 20260508094545 | 10 | 0 | 0.0 | 0.0 | 0.00 | 3.91 | 0.00 | 91 | 1015.2 |
| 20260508094030 | 10 | 0 | 0.0 | 0.0 | 0.00 | 3.91 | 0.00 | 91 | 1015.2 |
| 20260508093532 | 10 | 0 | 0.0 | 0.0 | 0.00 | 3.91 | 0.00 | 91 | 1015.1 |
| 20260508093042 | 10 | 0 | 0.0 | 0.0 | 0.00 | 3.91 | 0.00 | 91 | 1015.0 |
| 20260508092532 | 10 | 0 | 0.0 | 0.0 | 0.00 | 3.91 | 0.00 | 91 | 1014.9 |
| 20260508092032 | 10 | 0 | 0.0 | 0.0 | 0.00 | 3.91 | 0.00 | 91 | 1015.0 |
| 20260508091544 | 10 | 0 | 0.0 | 0.0 | 0.00 | 3.91 | 0.00 | 91 | 1014.9 |
| 20260508091032 | 10 | 0 | 0.0 | 0.0 | 0.00 | 3.91 | 0.00 | 91 | 1014.9 |
| 20260508090533 | 10 | 0 | 0.0 | 0.0 | 0.00 | 3.91 | 0.00 | 91 | 1014.8 |
| 20260508090036 | 10 | 0 | 0.0 | 0.0 | 0.00 | 3.91 | 0.00 | 91 | 1014.7 |
| 20260508085530 | 10 | 0 | 0.0 | 0.0 | 0.00 | 4.27 | 0.00 | 91 | 1014.6 |
| 20260508085029 | 10 | 0 | 0.0 | 3.2 | 0.00 | 4.27 | 0.00 | 91 | 1014.7 |
| 20260508084541 | 10 | 0 | 0.0 | 4.8 | 0.00 | 4.27 | 0.00 | 91 | 1014.8 |
| 20260508084032 | 10 | 0 | 0.0 | 4.8 | 0.00 | 4.27 | 0.00 | 91 | 1014.7 |
| 20260508083531 | 10 | 333 | 1.6 | 4.8 | 0.00 | 4.27 | 0.00 | 91 | 1014.7 |
| 20260508083048 | 10 | 333 | 1.6 | 4.8 | 0.00 | 4.27 | 0.00 | 91 | 1014.7 |
| 20260508082534 | 11 | 333 | 1.6 | 4.8 | 0.00 | 4.27 | 0.00 | 91 | 1014.6 |
| 20260508082030 | 11 | 332 | 0.0 | 3.2 | 0.00 | 4.27 | 0.00 | 91 | 1014.6 |
| 20260508081546 | 11 | 0 | 0.0 | 0.0 | 0.00 | 4.27 | 0.00 | 91 | 1014.6 |
| 20260508081031 | 11 | 0 | 0.0 | 0.0 | 0.00 | 4.27 | 0.00 | 91 | 1014.6 |
| 20260508080531 | 11 | 0 | 0.0 | 1.6 | 0.00 | 4.27 | 0.00 | 91 | 1014.7 |
| 20260508080053 | 11 | 0 | 0.0 | 3.2 | 0.00 | 4.27 | 0.00 | 91 | 1014.6 |
| 20260508075531 | 11 | 0 | 0.0 | 3.2 | 0.00 | 4.65 | 0.00 | 91 | 1014.6 |
| 20260508075031 | 11 | 332 | 1.6 | 3.2 | 0.00 | 4.65 | 0.00 | 90 | 1014.7 |
| 20260508074543 | 11 | 332 | 0.0 | 3.2 | 0.00 | 4.65 | 0.00 | 90 | 1014.7 |
| 20260508074032 | 11 | 0 | 0.0 | 0.0 | 0.00 | 4.65 | 0.00 | 90 | 1014.8 |
| 20260508073532 | 11 | 0 | 0.0 | 3.2 | 0.00 | 4.65 | 0.00 | 90 | 1014.7 |
| 20260508073045 | 11 | 0 | 0.0 | 3.2 | 0.00 | 4.65 | 0.00 | 89 | 1014.7 |
| 20260508072531 | 11 | 331 | 1.6 | 3.2 | 0.00 | 4.65 | 0.00 | 89 | 1014.7 |
| 20260508072031 | 11 | 331 | 1.6 | 3.2 | 0.00 | 4.65 | 0.00 | 89 | 1014.8 |
| 20260508071540 | 12 | 331 | 1.6 | 3.2 | 0.00 | 4.65 | 0.00 | 89 | 1014.8 |
| 20260508071033 | 12 | 0 | 0.0 | 3.2 | 0.00 | 4.65 | 0.00 | 88 | 1015.0 |
| 20260508070533 | 12 | 0 | 0.0 | 3.2 | 0.00 | 4.65 | 0.00 | 89 | 1015.0 |
| 20260508070042 | 12 | 0 | 0.0 | 3.2 | 0.00 | 4.65 | 0.00 | 89 | 1015.1 |
| 20260508065530 | 12 | 0 | 0.0 | 3.2 | 0.00 | 5.05 | 0.00 | 89 | 1015.0 |
| 20260508065031 | 12 | 332 | 0.0 | 3.2 | 0.00 | 5.05 | 0.00 | 89 | 1015.0 |
| 20260508064541 | 12 | 0 | 0.0 | 3.2 | 0.00 | 5.05 | 0.00 | 89 | 1015.0 |
| 20260508064032 | 12 | 0 | 0.0 | 4.8 | 0.00 | 5.05 | 0.00 | 89 | 1014.9 |
| 20260508063532 | 12 | 331 | 1.6 | 4.8 | 0.00 | 5.05 | 0.00 | 89 | 1015.0 |
| 20260508063040 | 12 | 329 | 0.0 | 4.8 | 0.00 | 5.05 | 0.00 | 89 | 1015.1 |
| 20260508062531 | 12 | 0 | 0.0 | 4.8 | 0.00 | 5.05 | 0.00 | 89 | 1015.2 |
| 20260508062030 | 12 | 329 | 0.0 | 4.8 | 0.00 | 5.05 | 0.00 | 89 | 1015.2 |
| 20260508061543 | 12 | 0 | 0.0 | 0.0 | 0.00 | 5.05 | 0.00 | 89 | 1015.2 |
| 20260508061035 | 12 | 0 | 0.0 | 0.0 | 0.00 | 5.05 | 0.00 | 89 | 1015.2 |
| 20260508060531 | 12 | 0 | 0.0 | 0.0 | 0.00 | 5.05 | 0.00 | 89 | 1015.1 |
| 20260508060037 | 12 | 0 | 0.0 | 0.0 | 0.00 | 5.05 | 0.00 | 89 | 1015.2 |
| 20260508055532 | 12 | 0 | 0.0 | 0.0 | 0.00 | 5.51 | 0.00 | 90 | 1015.3 |
| 20260508055033 | 13 | 0 | 0.0 | 0.0 | 0.00 | 5.51 | 0.00 | 89 | 1015.2 |
| 20260508054545 | 13 | 0 | 0.0 | 0.0 | 0.00 | 5.51 | 0.00 | 90 | 1015.1 |
| 20260508054031 | 13 | 0 | 0.0 | 3.2 | 0.00 | 5.51 | 0.00 | 90 | 1015.1 |
| 20260508053530 | 13 | 0 | 0.0 | 3.2 | 0.00 | 5.51 | 0.00 | 90 | 1015.3 |
| 20260508053047 | 13 | 0 | 0.0 | 1.6 | 0.00 | 5.51 | 0.00 | 90 | 1015.2 |
| 20260508052534 | 13 | 0 | 0.0 | 1.6 | 0.00 | 5.51 | 0.00 | 90 | 1015.1 |
| 20260508052031 | 13 | 0 | 0.0 | 3.2 | 0.00 | 5.51 | 0.00 | 90 | 1015.0 |
| 20260508051545 | 13 | 0 | 0.0 | 3.2 | 0.00 | 5.51 | 0.00 | 90 | 1015.1 |
| 20260508051032 | 13 | 0 | 0.0 | 4.8 | 0.00 | 5.51 | 0.00 | 90 | 1015.1 |
| 20260508050530 | 13 | 0 | 0.0 | 4.8 | 0.00 | 5.51 | 0.00 | 90 | 1015.3 |
| 20260508050042 | 13 | 331 | 0.0 | 4.8 | 0.00 | 5.51 | 0.00 | 90 | 1015.3 |
| 20260508045531 | 13 | 0 | 0.0 | 4.8 | 0.00 | 5.92 | 0.00 | 90 | 1015.4 |
| 20260508045030 | 13 | 333 | 0.0 | 3.2 | 0.00 | 5.92 | 0.00 | 90 | 1015.3 |
| 20260508044536 | 13 | 0 | 0.0 | 3.2 | 0.00 | 5.92 | 0.00 | 90 | 1015.2 |
| 20260508044031 | 13 | 0 | 0.0 | 3.2 | 0.00 | 5.92 | 0.00 | 90 | 1015.2 |
| 20260508043533 | 13 | 0 | 0.0 | 3.2 | 0.00 | 5.92 | 0.00 | 90 | 1015.2 |
| 20260508043049 | 13 | 0 | 0.0 | 3.2 | 0.00 | 5.92 | 0.00 | 90 | 1015.1 |
| 20260508042532 | 13 | 0 | 0.0 | 3.2 | 0.00 | 5.92 | 0.00 | 90 | 1015.1 |
| 20260508042031 | 13 | 340 | 0.0 | 3.2 | 0.00 | 5.92 | 0.00 | 90 | 1015.1 |
| 20260508041541 | 13 | 0 | 0.0 | 3.2 | 0.00 | 5.92 | 0.00 | 90 | 1015.1 |
| 20260508041030 | 13 | 340 | 0.0 | 6.4 | 0.00 | 5.92 | 0.00 | 90 | 1015.1 |
| 20260508040533 | 13 | 0 | 0.0 | 6.4 | 0.00 | 5.92 | 0.00 | 89 | 1014.8 |
| 20260508040051 | 13 | 0 | 0.0 | 1.6 | 0.00 | 5.92 | 0.00 | 89 | 1014.9 |
| 20260508035534 | 13 | 0 | 0.0 | 0.0 | 0.00 | 6.30 | 5.92 | 90 | 1014.7 |
| 20260508035033 | 13 | 0 | 0.0 | 1.6 | 0.00 | 6.30 | 5.92 | 89 | 1014.7 |
| 20260508034549 | 13 | 0 | 0.0 | 3.2 | 0.00 | 6.30 | 5.92 | 89 | 1014.9 |
| 20260508034030 | 13 | 0 | 0.0 | 3.2 | 0.00 | 6.30 | 5.92 | 89 | 1014.7 |
| 20260508033530 | 13 | 0 | 0.0 | 3.2 | 0.00 | 6.30 | 5.92 | 89 | 1014.7 |
| 20260508033109 | 13 | 0 | 0.0 | 0.0 | 0.00 | 6.30 | 5.92 | 89 | 1014.9 |
| 20260508032531 | 13 | 0 | 0.0 | 0.0 | 0.00 | 6.30 | 5.92 | 88 | 1014.8 |
| 20260508032032 | 14 | 0 | 0.0 | 0.0 | 0.00 | 6.30 | 5.92 | 88 | 1014.9 |
| 20260508031541 | 14 | 0 | 0.0 | 0.0 | 0.00 | 6.30 | 5.92 | 88 | 1014.8 |
| 20260508031031 | 14 | 0 | 0.0 | 3.2 | 0.00 | 6.30 | 5.92 | 88 | 1014.8 |
| 20260508030531 | 14 | 0 | 0.0 | 3.2 | 0.00 | 6.30 | 5.92 | 88 | 1014.9 |
| 20260508030040 | 14 | 0 | 0.0 | 3.2 | 0.00 | 6.30 | 5.92 | 88 | 1014.7 |
| 20260508025531 | 14 | 0 | 0.0 | 0.0 | 0.00 | 6.63 | 5.92 | 88 | 1014.6 |
| 20260508025030 | 14 | 0 | 0.0 | 0.0 | 0.00 | 6.63 | 5.92 | 88 | 1014.6 |
| 20260508024537 | 14 | 0 | 0.0 | 0.0 | 0.00 | 6.63 | 5.92 | 88 | 1014.5 |
| 20260508024031 | 14 | 0 | 0.0 | 0.0 | 0.00 | 6.63 | 5.92 | 87 | 1014.6 |
| 20260508023531 | 15 | 0 | 0.0 | 0.0 | 0.00 | 6.63 | 5.92 | 87 | 1014.6 |
| 20260508023043 | 15 | 0 | 0.0 | 0.0 | 0.00 | 6.63 | 5.92 | 87 | 1014.7 |
| 20260508022531 | 15 | 0 | 0.0 | 0.0 | 0.00 | 6.63 | 5.92 | 87 | 1014.6 |
| 20260508022032 | 15 | 0 | 0.0 | 0.0 | 0.00 | 6.63 | 5.92 | 87 | 1014.7 |
| 20260508021541 | 15 | 0 | 0.0 | 0.0 | 0.00 | 6.63 | 5.92 | 86 | 1014.6 |
| 20260508021031 | 15 | 0 | 0.0 | 1.6 | 0.00 | 6.63 | 5.92 | 86 | 1014.6 |
| 20260508020530 | 15 | 0 | 0.0 | 1.6 | 0.00 | 6.63 | 5.92 | 85 | 1014.4 |
| 20260508020041 | 15 | 0 | 0.0 | 1.6 | 0.00 | 6.63 | 5.92 | 85 | 1014.4 |
| 20260508015531 | 15 | 0 | 0.0 | 0.0 | 0.00 | 6.96 | 5.92 | 85 | 1014.4 |
| 20260508015032 | 15 | 0 | 0.0 | 0.0 | 0.00 | 6.96 | 5.92 | 84 | 1014.3 |
| 20260508014540 | 15 | 0 | 0.0 | 0.0 | 0.00 | 6.96 | 5.92 | 84 | 1014.3 |
| 20260508014031 | 16 | 0 | 0.0 | 0.0 | 0.00 | 6.96 | 5.92 | 84 | 1014.2 |
| 20260508013531 | 16 | 0 | 0.0 | 0.0 | 0.00 | 6.96 | 5.92 | 84 | 1014.1 |
| 20260508013042 | 16 | 0 | 0.0 | 0.0 | 0.00 | 6.96 | 5.92 | 83 | 1014.1 |
| 20260508012531 | 16 | 0 | 0.0 | 0.0 | 0.00 | 6.96 | 5.92 | 83 | 1013.9 |
| 20260508012031 | 16 | 0 | 0.0 | 0.0 | 0.00 | 6.96 | 5.92 | 82 | 1014.2 |
| 20260508011545 | 16 | 0 | 0.0 | 0.0 | 0.00 | 6.96 | 5.92 | 82 | 1014.1 |
| 20260508011032 | 16 | 0 | 0.0 | 1.6 | 0.00 | 6.96 | 5.92 | 82 | 1014.1 |
| 20260508010531 | 16 | 0 | 0.0 | 1.6 | 0.00 | 6.96 | 5.92 | 82 | 1014.0 |
| 20260508010042 | 16 | 0 | 0.0 | 4.8 | 0.00 | 6.96 | 5.92 | 82 | 1013.9 |
| 20260508005531 | 16 | 0 | 0.0 | 4.8 | 0.00 | 7.42 | 5.92 | 82 | 1013.9 |
| 20260508005031 | 16 | 347 | 1.6 | 6.4 | 0.00 | 7.42 | 5.92 | 82 | 1013.9 |
| 20260508004542 | 16 | 0 | 1.6 | 8.0 | 0.03 | 7.42 | 5.92 | 82 | 1013.9 |
| 20260508004032 | 16 | 0 | 3.2 | 8.0 | 0.03 | 7.42 | 5.92 | 82 | 1013.8 |
| 20260508003531 | 16 | 328 | 1.6 | 8.0 | 0.03 | 7.42 | 5.92 | 81 | 1013.7 |
| 20260508003040 | 17 | 0 | 1.6 | 8.0 | 0.03 | 7.42 | 5.92 | 82 | 1013.7 |
| 20260508002530 | 17 | 264 | 0.0 | 4.8 | 0.03 | 7.42 | 5.92 | 82 | 1013.7 |
| 20260508002034 | 17 | 0 | 1.6 | 8.0 | 0.03 | 7.42 | 5.92 | 82 | 1013.6 |
| 20260508001540 | 17 | 261 | 3.2 | 8.0 | 0.03 | 7.42 | 5.92 | 82 | 1013.5 |
| 20260508001030 | 17 | 324 | 1.6 | 8.0 | 0.05 | 7.42 | 5.92 | 82 | 1013.5 |
| 20260508000533 | 17 | 0 | 0.0 | 6.4 | 0.05 | 7.42 | 5.92 | 82 | 1013.4 |
| 20260508000047 | 17 | 0 | 0.0 | 6.4 | 0.05 | 7.42 | 5.92 | 82 | 1013.3 |
| 20260507235534 | 17 | 310 | 1.6 | 6.4 | 0.05 | 8.20 | 5.92 | 81 | 1013.3 |
| 20260507235031 | 17 | 0 | 0.0 | 4.8 | 0.05 | 8.20 | 5.92 | 81 | 1013.4 |
| 20260507234549 | 17 | 0 | 1.6 | 4.8 | 0.05 | 8.18 | 5.92 | 81 | 1013.3 |
| 20260507234031 | 17 | 0 | 0.0 | 11.3 | 0.05 | 8.18 | 5.92 | 81 | 1013.2 |
| 20260507233531 | 17 | 311 | 3.2 | 11.3 | 0.05 | 8.18 | 5.92 | 81 | 1013.3 |
| 20260507233042 | 17 | 292 | 3.2 | 8.0 | 0.05 | 8.18 | 5.92 | 80 | 1013.2 |
| 20260507232532 | 17 | 321 | 0.0 | 8.0 | 0.05 | 8.18 | 5.92 | 80 | 1013.2 |
| 20260507232031 | 17 | 316 | 3.2 | 12.9 | 0.08 | 8.18 | 5.92 | 80 | 1013.2 |
| 20260507231547 | 17 | 328 | 3.2 | 12.9 | 0.08 | 8.18 | 5.92 | 80 | 1013.0 |
| 20260507231032 | 17 | 315 | 4.8 | 14.5 | 0.05 | 8.15 | 5.89 | 79 | 1013.1 |
| 20260507230531 | 18 | 317 | 0.0 | 14.5 | 0.05 | 8.15 | 5.89 | 79 | 1013.1 |
| 20260507230042 | 18 | 294 | 3.2 | 14.5 | 0.08 | 8.15 | 5.89 | 79 | 1013.1 |
| 20260507225530 | 18 | 312 | 3.2 | 12.9 | 0.08 | 8.20 | 5.89 | 79 | 1013.1 |
| 20260507225033 | 18 | 330 | 4.8 | 12.9 | 0.08 | 8.20 | 5.89 | 79 | 1013.0 |
| 20260507224547 | 18 | 350 | 3.2 | 12.9 | 0.08 | 8.18 | 5.87 | 79 | 1012.9 |
| 20260507224030 | 18 | 0 | 3.2 | 12.9 | 0.08 | 8.18 | 5.87 | 79 | 1013.0 |
| 20260507223532 | 18 | 309 | 1.6 | 9.7 | 0.08 | 8.18 | 5.87 | 80 | 1013.0 |